,,PA_Meas_PMT16A,,PR_Meas_QMR101_102,,RH_Meas_QMH101,,SR_Meas_QMS101,,TA_Meas_QMH101,,GenWind,,GenWind,
time,status,PA,status,PR,status,RH,status,SR,status,TA,status,DirAvg,status,SpdAvg,
2015-01-08, 00:00:04,VALID,918.586,VALID,0,VALID,91.8622,VALID,0,VALID,20.2684,VALID,359,VALID,0,
2015-01-08, 00:01:04,VALID,918.552,VALID,0,VALID,91.603,VALID,0,VALID,20.2684,VALID,359,VALID,0,
2015-01-08, 00:02:04,VALID,918.541,VALID,0,VALID,90.8101,VALID,0,VALID,20.1903,VALID,359,VALID,0,
2015-01-08, 00:03:04,VALID,918.558,VALID,0,VALID,90.9397,VALID,0,VALID,20.1123,VALID,359,VALID,0,
2015-01-08, 00:04:04,VALID,918.544,VALID,0,VALID,91.3057,VALID,0,VALID,20.0343,VALID,359,VALID,0,
2015-01-08, 00:05:04,VALID,918.539,VALID,0,VALID,91.9155,VALID,0,VALID,19.9563,VALID,359,VALID,0,
2015-01-08, 00:06:04,VALID,918.52,VALID,0,VALID,92.7617,VALID,0,VALID,19.9383,VALID,359,VALID,0,
2015-01-08, 00:07:04,VALID,918.532,VALID,0,VALID,93.5622,VALID,0,VALID,19.9188,VALID,359,VALID,0,
2015-01-08, 00:08:04,VALID,918.521,VALID,0,VALID,94.0958,VALID,0,VALID,19.8993,VALID,359,VALID,0,
2015-01-08, 00:09:04,VALID,918.548,VALID,0,VALID,94.7133,VALID,0,VALID,19.8993,VALID,359,VALID,0,
2015-01-08, 00:10:04,VALID,918.572,VALID,0,VALID,94.8658,VALID,0,VALID,19.8783,VALID,359,VALID,0,
2015-01-08, 00:11:04,VALID,918.559,VALID,0,VALID,95.0183,VALID,0,VALID,19.8993,VALID,359,VALID,0,
2015-01-08, 00:12:04,VALID,918.594,VALID,0,VALID,95.1631,VALID,0,VALID,19.8783,VALID,359,VALID,0,
2015-01-08, 00:13:04,VALID,918.615,VALID,0,VALID,95.1326,VALID,0,VALID,19.8993,VALID,359,VALID,0,
2015-01-08, 00:14:04,VALID,918.63,VALID,0,VALID,95.1479,VALID,0,VALID,19.8588,VALID,359,VALID,0,
2015-01-08, 00:15:04,VALID,918.658,VALID,0,VALID,94.9496,VALID,0,VALID,19.8603,VALID,359,VALID,0,
2015-01-08, 00:16:04,VALID,918.648,VALID,0,VALID,94.9496,VALID,0,VALID,19.8198,VALID,359,VALID,0,
2015-01-08, 00:17:04,VALID,918.653,VALID,0,VALID,95.1021,VALID,0,VALID,19.8003,VALID,359,VALID,0,
2015-01-08, 00:18:04,VALID,918.688,VALID,0,VALID,95.3384,VALID,0,VALID,19.8213,VALID,359,VALID,0,
2015-01-08, 00:19:04,VALID,918.672,VALID,0,VALID,95.4909,VALID,0,VALID,19.8213,VALID,359,VALID,0,
2015-01-08, 00:20:04,VALID,918.679,VALID,0,VALID,95.5824,VALID,0,VALID,19.8003,VALID,359,VALID,0,
2015-01-08, 00:21:04,VALID,918.681,VALID,0.2,VALID,95.6739,VALID,0,VALID,19.8003,VALID,359,VALID,0,
2015-01-08, 00:22:04,VALID,918.688,VALID,0,VALID,95.712,VALID,0,VALID,19.8408,VALID,359,VALID,0,
2015-01-08, 00:23:04,VALID,918.701,VALID,0,VALID,95.7882,VALID,0,VALID,19.8198,VALID,359,VALID,0,
2015-01-08, 00:24:04,VALID,918.661,VALID,0,VALID,95.9483,VALID,0,VALID,19.8783,VALID,359,VALID,0,
2015-01-08, 00:25:04,VALID,918.656,VALID,0,VALID,96.0322,VALID,0,VALID,19.8978,VALID,359,VALID,0,
2015-01-08, 00:26:04,VALID,918.636,VALID,0.2,VALID,96.055,VALID,0,VALID,19.9188,VALID,359,VALID,0,
2015-01-08, 00:27:04,VALID,918.697,VALID,0,VALID,96.0627,VALID,0,VALID,19.9173,VALID,359,VALID,0,
2015-01-08, 00:28:04,VALID,918.679,VALID,0,VALID,96.055,VALID,0,VALID,19.9368,VALID,359,VALID,0,
2015-01-08, 00:29:04,VALID,918.689,VALID,0,VALID,96.116,VALID,0,VALID,19.9368,VALID,359,VALID,0,
2015-01-08, 00:30:04,VALID,918.658,VALID,0,VALID,96.1923,VALID,0,VALID,19.9968,VALID,359,VALID,0,
2015-01-08, 00:31:04,VALID,918.658,VALID,0,VALID,96.2914,VALID,0,VALID,20.0358,VALID,359,VALID,0,
2015-01-08, 00:32:04,VALID,918.652,VALID,0,VALID,96.1923,VALID,0,VALID,19.9758,VALID,359,VALID,0,
2015-01-08, 00:33:04,VALID,918.656,VALID,0,VALID,96.1465,VALID,0,VALID,19.9563,VALID,359,VALID,0,
2015-01-08, 00:34:04,VALID,918.673,VALID,0,VALID,96.0703,VALID,0,VALID,19.9383,VALID,359,VALID,0,
2015-01-08, 00:35:04,VALID,918.616,VALID,0,VALID,96.0398,VALID,0,VALID,19.9188,VALID,359,VALID,0,
2015-01-08, 00:36:04,VALID,918.633,VALID,0,VALID,96.0627,VALID,0,VALID,19.8978,VALID,359,VALID,0,
2015-01-08, 00:37:04,VALID,918.573,VALID,0,VALID,96.0474,VALID,0,VALID,19.8588,VALID,359,VALID,0,
2015-01-08, 00:38:04,VALID,918.581,VALID,0,VALID,96.055,VALID,0,VALID,19.8393,VALID,359,VALID,0,
2015-01-08, 00:39:04,VALID,918.558,VALID,0,VALID,96.1389,VALID,0,VALID,19.8393,VALID,359,VALID,0,
2015-01-08, 00:40:04,VALID,918.553,VALID,0,VALID,96.1846,VALID,0,VALID,19.8003,VALID,359,VALID,0,
2015-01-08, 00:41:04,VALID,918.52,VALID,0,VALID,96.2533,VALID,0,VALID,19.8198,VALID,359,VALID,0,
2015-01-08, 00:42:04,VALID,918.465,VALID,0,VALID,96.3905,VALID,0,VALID,19.8198,VALID,359,VALID,0,
2015-01-08, 00:43:04,VALID,918.461,VALID,0,VALID,96.4591,VALID,0,VALID,19.8603,VALID,359,VALID,0,
2015-01-08, 00:44:04,VALID,918.434,VALID,0,VALID,96.5353,VALID,0,VALID,19.8198,VALID,359,VALID,0,
2015-01-08, 00:45:04,VALID,918.405,VALID,0,VALID,96.6268,VALID,0,VALID,19.8588,VALID,359,VALID,0,
2015-01-08, 00:46:04,VALID,918.367,VALID,0,VALID,96.7259,VALID,0,VALID,19.8993,VALID,359,VALID,0,
2015-01-08, 00:47:04,VALID,918.355,VALID,0,VALID,96.7259,VALID,0,VALID,19.8798,VALID,359,VALID,0,
2015-01-08, 00:48:04,VALID,918.341,VALID,0,VALID,96.703,VALID,0,VALID,19.8198,VALID,359,VALID,0,
2015-01-08, 00:49:04,VALID,918.265,VALID,0,VALID,96.7488,VALID,0,VALID,19.8198,VALID,359,VALID,0,
2015-01-08, 00:50:04,VALID,918.252,VALID,0,VALID,96.8098,VALID,0,VALID,19.8408,VALID,359,VALID,0,
2015-01-08, 00:51:04,VALID,918.212,VALID,0,VALID,96.8555,VALID,0,VALID,19.8603,VALID,359,VALID,0,
2015-01-08, 00:52:04,VALID,918.222,VALID,0,VALID,96.9089,VALID,0,VALID,19.8603,VALID,359,VALID,0,
2015-01-08, 00:53:04,VALID,918.183,VALID,0,VALID,96.8936,VALID,0,VALID,19.8408,VALID,359,VALID,0,
2015-01-08, 00:54:04,VALID,918.177,VALID,0,VALID,96.886,VALID,0,VALID,19.8213,VALID,359,VALID,0,
2015-01-08, 00:55:04,VALID,918.137,VALID,0,VALID,96.8631,VALID,0,VALID,19.8018,VALID,357,VALID,0,
2015-01-08, 00:56:04,VALID,918.129,VALID,0,VALID,96.8479,VALID,0,VALID,19.7628,VALID,352,VALID,0,
2015-01-08, 00:57:04,VALID,918.104,VALID,0,VALID,96.886,VALID,0,VALID,19.7628,VALID,356,VALID,0,
2015-01-08, 00:58:04,VALID,918.073,VALID,0,VALID,96.886,VALID,0,VALID,19.7433,VALID,360,VALID,0,
2015-01-08, 00:59:04,VALID,918.065,VALID,0,VALID,96.9546,VALID,0,VALID,19.7433,VALID,360,VALID,0,
2015-01-08, 01:00:04,VALID,918.044,VALID,0,VALID,96.9851,VALID,0,VALID,19.7238,VALID,360,VALID,0,
2015-01-08, 01:01:04,VALID,918.015,VALID,0,VALID,97.0003,VALID,0,VALID,19.7043,VALID,360,VALID,0,
2015-01-08, 01:02:04,VALID,917.987,VALID,0,VALID,97.0385,VALID,0,VALID,19.6848,VALID,360,VALID,0,
2015-01-08, 01:03:04,VALID,917.949,VALID,0,VALID,97.1071,VALID,0,VALID,19.6653,VALID,360,VALID,0,
2015-01-08, 01:04:04,VALID,917.925,VALID,0,VALID,97.1223,VALID,0,VALID,19.6263,VALID,360,VALID,0,
2015-01-08, 01:05:04,VALID,917.891,VALID,0,VALID,97.1757,VALID,0,VALID,19.6263,VALID,360,VALID,0,
2015-01-08, 01:06:04,VALID,917.859,VALID,0,VALID,97.2367,VALID,0,VALID,19.6053,VALID,360,VALID,0,
2015-01-08, 01:07:04,VALID,917.858,VALID,0,VALID,97.3053,VALID,0,VALID,19.6263,VALID,360,VALID,0,
2015-01-08, 01:08:04,VALID,917.815,VALID,0,VALID,97.3205,VALID,0,VALID,19.6053,VALID,360,VALID,0,
2015-01-08, 01:09:04,VALID,917.798,VALID,0,VALID,97.3586,VALID,0,VALID,19.6263,VALID,360,VALID,0,
2015-01-08, 01:10:04,VALID,917.819,VALID,0,VALID,97.3968,VALID,0,VALID,19.6263,INVALID,360,VALID,0,
2015-01-08, 01:11:04,VALID,917.822,VALID,0,VALID,97.4044,VALID,0,VALID,19.6248,VALID,360,VALID,0,
2015-01-08, 01:12:04,VALID,917.825,VALID,0,VALID,97.4501,VALID,0,VALID,19.6638,VALID,360,VALID,0,
2015-01-08, 01:13:04,VALID,917.836,VALID,0,VALID,97.4501,VALID,0,VALID,19.6443,VALID,360,VALID,0,
2015-01-08, 01:14:04,VALID,917.803,VALID,0,VALID,97.5111,VALID,0,VALID,19.7043,VALID,360,VALID,0,
2015-01-08, 01:15:04,VALID,917.8,VALID,0.2,VALID,97.4882,VALID,0,VALID,19.7238,VALID,358,VALID,0,
2015-01-08, 01:16:04,VALID,917.783,VALID,0,VALID,97.4959,VALID,0,VALID,19.7433,INVALID,360,VALID,0,
2015-01-08, 01:17:04,VALID,917.764,VALID,0,VALID,97.5035,VALID,0,VALID,19.7223,VALID,348,VALID,0,
2015-01-08, 01:18:04,VALID,917.713,VALID,0,VALID,97.4959,VALID,0,VALID,19.7628,VALID,352,VALID,0,
2015-01-08, 01:19:04,VALID,917.669,VALID,0,VALID,97.5111,VALID,0,VALID,19.7433,VALID,15,VALID,0,
2015-01-08, 01:20:04,VALID,917.637,VALID,0,VALID,97.4959,VALID,0,VALID,19.7433,VALID,15,VALID,0.0253906,
2015-01-08, 01:21:04,VALID,917.653,VALID,0,VALID,97.4882,VALID,0,VALID,19.7433,VALID,15,VALID,0,
2015-01-08, 01:22:04,VALID,917.626,VALID,0,VALID,97.4882,VALID,0,VALID,19.7433,VALID,5,VALID,0,
2015-01-08, 01:23:04,VALID,917.624,VALID,0,VALID,97.473,VALID,0,VALID,19.7028,VALID,4,VALID,0,
2015-01-08, 01:24:04,VALID,917.568,VALID,0,VALID,97.4501,VALID,0,VALID,19.7043,VALID,5,VALID,0,
2015-01-08, 01:25:04,VALID,917.539,VALID,0,VALID,97.4425,VALID,0,VALID,19.6848,VALID,12,VALID,0,
2015-01-08, 01:26:04,VALID,917.501,VALID,0,VALID,97.4425,VALID,0,VALID,19.6653,VALID,4,VALID,0,
2015-01-08, 01:27:04,VALID,917.529,VALID,0,VALID,97.4425,VALID,0,VALID,19.6443,VALID,1,VALID,0,
2015-01-08, 01:28:04,VALID,917.479,VALID,0,VALID,97.4196,VALID,0,VALID,19.6248,VALID,349,VALID,0,
2015-01-08, 01:29:04,VALID,917.465,VALID,0,VALID,97.4425,VALID,0,VALID,19.6458,VALID,347,VALID,0,
2015-01-08, 01:30:04,VALID,917.462,VALID,0,VALID,97.4349,VALID,0,VALID,19.6443,VALID,347,VALID,0,
2015-01-08, 01:31:04,VALID,917.449,VALID,0,VALID,97.4654,VALID,0,VALID,19.6443,VALID,346,VALID,0,
2015-01-08, 01:32:04,VALID,917.409,VALID,0,VALID,97.4882,VALID,0,VALID,19.6248,VALID,346,VALID,0,
2015-01-08, 01:33:04,VALID,917.411,VALID,0,VALID,97.473,VALID,0,VALID,19.6458,VALID,347,VALID,0,
2015-01-08, 01:34:04,VALID,917.395,VALID,0,VALID,97.4806,VALID,0,VALID,19.6653,VALID,352,VALID,0,
2015-01-08, 01:35:04,VALID,917.358,VALID,0,VALID,97.4959,VALID,0,VALID,19.6248,VALID,347,VALID,0,
2015-01-08, 01:36:04,VALID,917.332,VALID,0,VALID,97.5035,VALID,0,VALID,19.6458,VALID,348,VALID,0,
2015-01-08, 01:37:04,VALID,917.342,VALID,0,VALID,97.5264,VALID,0,VALID,19.6458,VALID,348,VALID,0,
2015-01-08, 01:38:04,VALID,917.309,VALID,0,VALID,97.5111,VALID,0,VALID,19.6458,VALID,347,VALID,0,
2015-01-08, 01:39:04,VALID,917.338,VALID,0,VALID,97.5187,VALID,0,VALID,19.6653,VALID,347,VALID,0,
2015-01-08, 01:40:04,VALID,917.344,VALID,0,VALID,97.5721,VALID,0,VALID,19.6653,VALID,347,VALID,0,
2015-01-08, 01:41:04,VALID,917.324,VALID,0,VALID,97.5416,VALID,0,VALID,19.6443,VALID,347,VALID,0,
2015-01-08, 01:42:04,VALID,917.304,VALID,0,VALID,97.5797,VALID,0,VALID,19.6458,VALID,347,VALID,0,
2015-01-08, 01:43:04,VALID,917.288,VALID,0,VALID,97.5645,VALID,0,VALID,19.6458,VALID,358,VALID,0,
2015-01-08, 01:44:04,VALID,917.273,VALID,0,VALID,97.5873,VALID,0,VALID,19.6443,VALID,358,VALID,0,
2015-01-08, 01:45:04,VALID,917.236,VALID,0,VALID,97.595,VALID,0,VALID,19.6248,VALID,358,VALID,0,
2015-01-08, 01:46:04,VALID,917.203,VALID,0,VALID,97.595,VALID,0,VALID,19.6263,VALID,358,VALID,0,
2015-01-08, 01:47:04,VALID,917.179,VALID,0,VALID,97.6102,VALID,0,VALID,19.6068,VALID,358,VALID,0,
2015-01-08, 01:48:04,VALID,917.176,VALID,0,VALID,97.595,VALID,0,VALID,19.6053,VALID,358,VALID,0,
2015-01-08, 01:49:04,VALID,917.169,VALID,0,VALID,97.6178,VALID,0,VALID,19.6263,VALID,358,VALID,0,
2015-01-08, 01:50:04,VALID,917.167,VALID,0,VALID,97.6331,VALID,0,VALID,19.6053,VALID,358,VALID,0,
2015-01-08, 01:51:04,VALID,917.182,VALID,0,VALID,97.6407,VALID,0,VALID,19.6248,VALID,358,VALID,0,
2015-01-08, 01:52:04,VALID,917.169,VALID,0,VALID,97.6636,VALID,0,VALID,19.6248,VALID,358,VALID,0,
2015-01-08, 01:53:04,VALID,917.194,VALID,0,VALID,97.6483,VALID,0,VALID,19.6068,VALID,358,VALID,0,
2015-01-08, 01:54:04,VALID,917.169,VALID,0,VALID,97.6483,VALID,0,VALID,19.5873,VALID,358,VALID,0,
2015-01-08, 01:55:04,VALID,917.148,VALID,0,VALID,97.6483,VALID,0,VALID,19.5483,VALID,358,VALID,0,
2015-01-08, 01:56:04,VALID,917.157,VALID,0,VALID,97.6407,VALID,0,VALID,19.5483,VALID,358,VALID,0,
2015-01-08, 01:57:04,VALID,917.108,VALID,0,VALID,97.6255,VALID,0,VALID,19.5273,VALID,358,VALID,0,
2015-01-08, 01:58:04,VALID,917.05,VALID,0,VALID,97.6407,VALID,0,VALID,19.5093,VALID,359,VALID,0,
2015-01-08, 01:59:04,VALID,917.051,VALID,0,VALID,97.6255,VALID,0,VALID,19.4898,VALID,15,VALID,0,
2015-01-08, 02:00:05,VALID,917.044,VALID,0,VALID,97.6331,VALID,0,VALID,19.4688,VALID,15,VALID,0,
2015-01-08, 02:01:05,VALID,917.048,VALID,0,VALID,97.6483,VALID,0,VALID,19.4688,VALID,15,VALID,0,
2015-01-08, 02:02:05,VALID,917.041,VALID,0,VALID,97.656,VALID,0,VALID,19.4283,VALID,15,VALID,0,
2015-01-08, 02:03:05,VALID,917.052,VALID,0,VALID,97.6255,VALID,0.107441,VALID,19.4298,VALID,15,VALID,0,
2015-01-08, 02:04:05,VALID,917.038,VALID,0,VALID,97.6331,VALID,0.107441,VALID,19.4088,VALID,15,VALID,0,
2015-01-08, 02:05:05,VALID,917.064,VALID,0,VALID,97.656,VALID,0.107441,VALID,19.4298,VALID,15,VALID,0,
2015-01-08, 02:06:05,VALID,917.056,VALID,0,VALID,97.6865,VALID,0.107441,VALID,19.4103,VALID,15,VALID,0,
2015-01-08, 02:07:05,VALID,917.058,VALID,0,VALID,97.656,VALID,0,VALID,19.4088,VALID,357,VALID,0,
2015-01-08, 02:08:05,VALID,917.044,VALID,0,VALID,97.6865,VALID,0,VALID,19.4493,VALID,357,VALID,0,
2015-01-08, 02:09:05,VALID,917.054,VALID,0,VALID,97.6865,VALID,0.107441,VALID,19.4298,VALID,1,VALID,0,
2015-01-08, 02:10:05,VALID,917.065,VALID,0,VALID,97.7017,VALID,0.107441,VALID,19.4493,VALID,1,VALID,0,
2015-01-08, 02:11:05,VALID,917.041,VALID,0,VALID,97.7093,VALID,0.107441,VALID,19.4493,VALID,1,VALID,0,
2015-01-08, 02:12:05,VALID,917.042,VALID,0,VALID,97.7169,VALID,0,VALID,19.4478,VALID,8,VALID,0,
2015-01-08, 02:13:05,VALID,917.015,VALID,0,VALID,97.7169,VALID,0.107441,VALID,19.4883,VALID,17,VALID,0.1875,
2015-01-08, 02:14:05,VALID,917.02,VALID,0,VALID,97.6941,VALID,0.107441,VALID,19.5078,VALID,42,VALID,0,
2015-01-08, 02:15:05,VALID,916.989,VALID,0,VALID,97.7017,VALID,0,VALID,19.5273,VALID,35,VALID,0,
2015-01-08, 02:16:05,VALID,916.983,VALID,0,VALID,97.7017,VALID,0,VALID,19.5273,VALID,12,VALID,0,
2015-01-08, 02:17:05,VALID,916.998,VALID,0,VALID,97.6941,VALID,0.107441,VALID,19.5273,VALID,334,VALID,0,
2015-01-08, 02:18:05,VALID,917.019,VALID,0,VALID,97.6941,VALID,0.107441,VALID,19.5273,VALID,334,VALID,0,
2015-01-08, 02:19:05,VALID,917.045,VALID,0,VALID,97.6712,VALID,0,VALID,19.5078,VALID,346,VALID,0,
2015-01-08, 02:20:05,VALID,917.039,VALID,0,VALID,97.6636,VALID,0,VALID,19.4868,VALID,351,VALID,0,
2015-01-08, 02:21:05,VALID,917.017,VALID,0,VALID,97.656,VALID,0.107441,VALID,19.4883,VALID,357,VALID,0,
2015-01-08, 02:22:05,VALID,917.004,VALID,0,VALID,97.656,VALID,0,VALID,19.4883,VALID,331,VALID,0,
2015-01-08, 02:23:05,VALID,916.969,VALID,0,VALID,97.656,VALID,0.107441,VALID,19.4883,VALID,359,VALID,0.00351562,
2015-01-08, 02:24:05,VALID,916.942,VALID,0,VALID,97.6712,VALID,0.107441,VALID,19.4883,VALID,346,VALID,0,
2015-01-08, 02:25:05,VALID,916.926,VALID,0,VALID,97.6636,VALID,0,VALID,19.4688,VALID,346,VALID,0,
2015-01-08, 02:26:05,VALID,916.941,VALID,0,VALID,97.6483,VALID,0,VALID,19.4688,VALID,347,VALID,0,
2015-01-08, 02:27:05,VALID,916.936,VALID,0,VALID,97.6712,VALID,0.107441,VALID,19.4478,VALID,347,VALID,0,
2015-01-08, 02:28:05,VALID,916.938,VALID,0,VALID,97.6636,VALID,0.107441,VALID,19.4478,VALID,354,VALID,0,
2015-01-08, 02:29:05,VALID,916.899,VALID,0,VALID,97.656,VALID,0,VALID,19.4688,VALID,354,VALID,0,
2015-01-08, 02:30:05,VALID,916.889,VALID,0,VALID,97.6636,VALID,0,VALID,19.4493,VALID,10,VALID,0,
2015-01-08, 02:31:05,VALID,916.884,VALID,0,VALID,97.6788,VALID,0,VALID,19.4298,VALID,10,VALID,0,
2015-01-08, 02:32:05,VALID,916.895,VALID,0,VALID,97.6483,VALID,0,VALID,19.4298,VALID,358,VALID,0,
2015-01-08, 02:33:05,VALID,916.907,VALID,0,VALID,97.6331,VALID,0,VALID,19.4688,VALID,9,VALID,0,
2015-01-08, 02:34:05,VALID,916.87,VALID,0,VALID,97.6255,VALID,0,VALID,19.4688,VALID,358,VALID,0,
2015-01-08, 02:35:05,VALID,916.885,VALID,0,VALID,97.6407,VALID,0,VALID,19.4688,VALID,358,VALID,0,
2015-01-08, 02:36:05,VALID,916.888,VALID,0,VALID,97.6178,VALID,0,VALID,19.4688,VALID,359,VALID,0,
2015-01-08, 02:37:05,VALID,916.909,VALID,0,VALID,97.6255,VALID,0,VALID,19.4493,VALID,358,VALID,0,
2015-01-08, 02:38:05,VALID,916.909,VALID,0,VALID,97.6026,VALID,0.107441,VALID,19.4688,VALID,358,VALID,0,
2015-01-08, 02:39:05,VALID,916.945,VALID,0,VALID,97.5797,VALID,0.107441,VALID,19.4688,VALID,349,VALID,0,
2015-01-08, 02:40:05,VALID,916.924,VALID,0,VALID,97.595,VALID,0,VALID,19.4493,VALID,354,VALID,0,
2015-01-08, 02:41:05,VALID,916.942,VALID,0,VALID,97.5721,VALID,0,VALID,19.4688,VALID,328,VALID,0,
2015-01-08, 02:42:05,VALID,916.975,VALID,0,VALID,97.5569,VALID,0,VALID,19.4883,VALID,347,VALID,0,
2015-01-08, 02:43:05,VALID,916.997,VALID,0,VALID,97.5492,VALID,0,VALID,19.4883,VALID,346,VALID,0,
2015-01-08, 02:44:05,VALID,917.013,VALID,0,VALID,97.534,VALID,0.107441,VALID,19.4883,VALID,330,VALID,0,
2015-01-08, 02:45:05,VALID,917.02,VALID,0,VALID,97.5111,VALID,0.107441,VALID,19.4688,VALID,330,VALID,0,
2015-01-08, 02:46:05,VALID,916.992,VALID,0,VALID,97.534,VALID,0,VALID,19.4493,VALID,328,VALID,0,
2015-01-08, 02:47:05,VALID,916.976,VALID,0,VALID,97.5416,VALID,0.107441,VALID,19.4493,VALID,324,VALID,0,
2015-01-08, 02:48:05,VALID,916.969,VALID,0,VALID,97.534,VALID,0,VALID,19.4493,VALID,325,VALID,0,
2015-01-08, 02:49:05,VALID,916.981,VALID,0,VALID,97.5569,VALID,0.107441,VALID,19.4478,VALID,325,VALID,0,
2015-01-08, 02:50:05,VALID,916.946,VALID,0,VALID,97.5721,VALID,0,VALID,19.4493,VALID,325,VALID,0,
2015-01-08, 02:51:05,VALID,916.974,VALID,0,VALID,97.5721,VALID,0,VALID,19.4493,VALID,325,VALID,0,
2015-01-08, 02:52:05,VALID,916.958,VALID,0,VALID,97.6102,VALID,0,VALID,19.4493,VALID,325,VALID,0,
2015-01-08, 02:53:05,VALID,916.944,VALID,0,VALID,97.6178,VALID,0.107441,VALID,19.4298,VALID,325,VALID,0,
2015-01-08, 02:54:05,VALID,916.929,VALID,0,VALID,97.6255,VALID,0,VALID,19.4298,VALID,325,VALID,0,
2015-01-08, 02:55:05,VALID,916.916,VALID,0,VALID,97.6407,VALID,0,VALID,19.4298,VALID,325,VALID,0,
2015-01-08, 02:56:05,VALID,916.905,VALID,0,VALID,97.656,VALID,0,VALID,19.4298,VALID,325,VALID,0,
2015-01-08, 02:57:05,VALID,916.898,VALID,0,VALID,97.6865,VALID,0,VALID,19.3893,VALID,325,VALID,0,
2015-01-08, 02:58:05,VALID,916.89,VALID,0,VALID,97.6941,VALID,0,VALID,19.4298,VALID,325,VALID,0,
2015-01-08, 02:59:05,VALID,916.887,VALID,0,VALID,97.7093,VALID,0.107441,VALID,19.4298,VALID,325,VALID,0,
2015-01-08, 03:00:05,VALID,916.846,VALID,0,VALID,97.7322,VALID,0,VALID,19.4103,VALID,325,VALID,0,
2015-01-08, 03:01:05,VALID,916.887,VALID,0,VALID,97.7246,VALID,0,VALID,19.3713,VALID,325,VALID,0,
2015-01-08, 03:02:05,VALID,916.891,VALID,0,VALID,97.7398,VALID,0.107441,VALID,19.3518,VALID,325,VALID,0,
2015-01-08, 03:03:05,VALID,916.919,VALID,0,VALID,97.7246,VALID,0,VALID,19.3128,VALID,325,VALID,0,
2015-01-08, 03:04:05,VALID,916.926,VALID,0,VALID,97.7246,VALID,0,VALID,19.2933,VALID,325,VALID,0,
2015-01-08, 03:05:05,VALID,916.975,VALID,0,VALID,97.7169,VALID,0,VALID,19.2933,VALID,325,VALID,0,
2015-01-08, 03:06:05,VALID,916.98,VALID,0,VALID,97.7246,VALID,0,VALID,19.2933,VALID,325,VALID,0,
2015-01-08, 03:07:05,VALID,916.965,VALID,0,VALID,97.7246,VALID,0,VALID,19.3128,VALID,325,VALID,0,
2015-01-08, 03:08:05,VALID,917.014,VALID,0,VALID,97.7551,VALID,0.107441,VALID,19.3518,VALID,325,VALID,0,
2015-01-08, 03:09:05,VALID,916.993,VALID,0,VALID,97.7779,VALID,0,VALID,19.3338,VALID,325,VALID,0,
2015-01-08, 03:10:05,VALID,917.025,VALID,0,VALID,97.7703,VALID,0,VALID,19.2933,VALID,327,VALID,0,
2015-01-08, 03:11:05,VALID,917.021,VALID,0,VALID,97.7551,VALID,0,VALID,19.3128,VALID,325,VALID,0,
2015-01-08, 03:12:05,VALID,917.017,VALID,0,VALID,97.7779,VALID,0,VALID,19.3323,VALID,326,VALID,0,
2015-01-08, 03:13:05,VALID,917.024,VALID,0,VALID,97.7703,VALID,0,VALID,19.3323,VALID,326,VALID,0,
2015-01-08, 03:14:05,VALID,917.043,VALID,0,VALID,97.7551,VALID,0,VALID,19.3713,VALID,326,VALID,0,
2015-01-08, 03:15:05,VALID,917.029,VALID,0,VALID,97.7551,VALID,0.107441,VALID,19.3503,VALID,326,VALID,0,
2015-01-08, 03:16:05,VALID,917.011,VALID,0,VALID,97.7398,VALID,0,VALID,19.4118,VALID,326,VALID,0,
2015-01-08, 03:17:05,VALID,917.039,VALID,0,VALID,97.7703,VALID,0,VALID,19.4103,VALID,326,VALID,0,
2015-01-08, 03:18:05,VALID,917.021,VALID,0,VALID,97.7779,VALID,0,VALID,19.4493,VALID,326,VALID,0,
2015-01-08, 03:19:05,VALID,917.037,VALID,0,VALID,97.7779,VALID,0,VALID,19.4688,VALID,326,VALID,0,
2015-01-08, 03:20:05,VALID,916.989,VALID,0,VALID,97.8008,VALID,0,VALID,19.4688,VALID,326,VALID,0,
2015-01-08, 03:21:05,VALID,916.973,VALID,0,VALID,97.8008,VALID,0.107441,VALID,19.4478,VALID,326,VALID,0,
2015-01-08, 03:22:05,VALID,916.996,VALID,0,VALID,97.7932,VALID,0,VALID,19.4688,VALID,326,VALID,0,
2015-01-08, 03:23:05,VALID,916.974,VALID,0,VALID,97.7856,VALID,0,VALID,19.4688,VALID,326,VALID,0,
2015-01-08, 03:24:05,VALID,916.958,VALID,0,VALID,97.7856,VALID,0,VALID,19.4478,VALID,326,VALID,0,
2015-01-08, 03:25:05,VALID,916.956,VALID,0,VALID,97.8008,VALID,0.107441,VALID,19.4883,VALID,326,VALID,0,
2015-01-08, 03:26:05,VALID,916.947,VALID,0,VALID,97.8084,VALID,0,VALID,19.4493,VALID,326,VALID,0,
2015-01-08, 03:27:05,VALID,916.949,VALID,0,VALID,97.7856,VALID,0,VALID,19.4493,VALID,326,VALID,0,
2015-01-08, 03:28:05,VALID,916.919,VALID,0,VALID,97.7856,VALID,0,VALID,19.3698,VALID,326,VALID,0,
2015-01-08, 03:29:05,VALID,916.904,VALID,0,VALID,97.7627,VALID,0,VALID,19.3713,VALID,326,VALID,0,
2015-01-08, 03:30:05,VALID,916.932,VALID,0,VALID,97.7703,VALID,0,VALID,19.3338,VALID,326,VALID,0,
2015-01-08, 03:31:05,VALID,916.969,VALID,0,VALID,97.7246,VALID,0,VALID,19.3143,VALID,326,VALID,0,
2015-01-08, 03:32:05,VALID,916.925,VALID,0,VALID,97.7093,VALID,0,VALID,19.2948,VALID,4,VALID,0,
2015-01-08, 03:33:05,VALID,916.943,VALID,0,VALID,97.7246,VALID,0,VALID,19.2933,VALID,4,VALID,0,
2015-01-08, 03:34:05,VALID,916.937,VALID,0,VALID,97.7246,VALID,0,VALID,19.2948,VALID,4,VALID,0,
2015-01-08, 03:35:05,VALID,916.923,VALID,0,VALID,97.7169,VALID,0,VALID,19.2738,VALID,4,VALID,0,
2015-01-08, 03:36:05,VALID,916.91,VALID,0,VALID,97.6941,VALID,0,VALID,19.2738,VALID,4,VALID,0,
2015-01-08, 03:37:05,VALID,916.911,VALID,0,VALID,97.6483,VALID,0,VALID,19.2753,VALID,4,VALID,0,
2015-01-08, 03:38:05,VALID,916.922,VALID,0,VALID,97.6331,VALID,0,VALID,19.2738,VALID,5,VALID,0,
2015-01-08, 03:39:05,VALID,916.916,VALID,0,VALID,97.6026,VALID,0,VALID,19.3143,VALID,8,VALID,0,
2015-01-08, 03:40:05,VALID,916.917,VALID,0,VALID,97.5645,VALID,0,VALID,19.2933,VALID,8,VALID,0,
2015-01-08, 03:41:05,VALID,916.937,VALID,0,VALID,97.5187,VALID,0,VALID,19.3338,VALID,8,VALID,0,
2015-01-08, 03:42:05,VALID,916.923,VALID,0,VALID,97.5187,VALID,0,VALID,19.3533,VALID,8,VALID,0,
2015-01-08, 03:43:05,VALID,916.943,VALID,0,VALID,97.4882,VALID,0,VALID,19.3518,VALID,8,VALID,0,
2015-01-08, 03:44:05,VALID,916.916,VALID,0,VALID,97.4425,VALID,0,VALID,19.3713,VALID,7,VALID,0,
2015-01-08, 03:45:05,VALID,916.947,VALID,0,VALID,97.3968,VALID,0,VALID,19.4103,VALID,3,VALID,0,
2015-01-08, 03:46:05,VALID,916.906,VALID,0,VALID,97.3586,VALID,0,VALID,19.4103,VALID,3,VALID,0,
2015-01-08, 03:47:05,VALID,916.918,VALID,0,VALID,97.3129,VALID,0,VALID,19.4313,VALID,358,VALID,0,
2015-01-08, 03:48:05,VALID,916.926,VALID,0,VALID,97.2519,VALID,0,VALID,19.4508,VALID,348,VALID,0,
2015-01-08, 03:49:05,VALID,916.885,VALID,0,VALID,97.1681,VALID,0,VALID,19.4508,VALID,3,VALID,0,
2015-01-08, 03:50:05,VALID,916.895,VALID,0,VALID,97.1147,VALID,0,VALID,19.4703,VALID,3,VALID,0,
2015-01-08, 03:51:05,VALID,916.888,VALID,0,VALID,97.0308,VALID,0,VALID,19.4703,VALID,2,VALID,0,
2015-01-08, 03:52:05,VALID,916.905,VALID,0,VALID,96.9546,VALID,0,VALID,19.4898,VALID,2,VALID,0,
2015-01-08, 03:53:05,VALID,916.919,VALID,0,VALID,96.886,VALID,0,VALID,19.4688,VALID,2,VALID,0,
2015-01-08, 03:54:05,VALID,916.914,VALID,0,VALID,96.8174,VALID,0,VALID,19.4703,VALID,2,VALID,0,
2015-01-08, 03:55:05,VALID,916.88,VALID,0,VALID,96.7488,VALID,0,VALID,19.4703,VALID,349,VALID,0,
2015-01-08, 03:56:05,VALID,916.944,VALID,0,VALID,96.6878,VALID,0,VALID,19.4703,VALID,358,VALID,0,
2015-01-08, 03:57:05,VALID,916.961,VALID,0,VALID,96.6039,VALID,0,VALID,19.4703,VALID,2,VALID,0,
2015-01-08, 03:58:05,VALID,916.949,VALID,0,VALID,96.5658,VALID,0,VALID,19.4898,VALID,358,VALID,0,